Regional Weather Roundup
Issued by NWS

Home | Current Version | Previous Version | Text Only | Print | Product List | Glossary Off
Versions: 1 2 3 4 5 6 7 8 9 10 11 12 13 14 15 16 17 18 19 20 21 22 23 24 25 26 27 28 29 30 31 32 33 34 35 36 37 38 39 40 41 42 43 44 45 46 47 48 49 50

000
ASUS43 KLOT 211910
RWRIL

ILLINOIS REGIONAL WEATHER ROUNDUP
NATIONAL WEATHER SERVICE CHICAGO/ROMEOVILLE IL
200 PM CDT SUN SEP 21 2014

NOTE: "FAIR" INDICATES FEW OR NO CLOUDS BELOW 12,000 FEET WITH NO
SIGNIFICANT WEATHER AND/OR OBSTRUCTIONS TO VISIBILITY.

* THESE STATIONS ARE NOT UNDER NWS QUALITY CONTROL. THEY ALSO MAY NOT
  REPORT WEATHER SUCH AS PRECIPITATION OR FOG.

ILZ001-002-007-009-015-016-024-212000-
NORTHWEST ILLINOIS

CITY           SKY/WX    TMP DP  RH WIND       PRES   REMARKS
MOLINE         CLOUDY    65  51  60 NW13      30.04F
STERLING*      CLOUDY    64  52  63 N12G23    30.01S
SAVANNA*       CLOUDY    63  51  65 NW10      30.03S
$$

ILZ003-004-008-010-011-017-018-212000-
NORTH CENTRAL ILLINOIS

CITY           SKY/WX    TMP DP  RH WIND       PRES   REMARKS
ROCKFORD       PTSUNNY   68  51  54 NW17      29.99S
ROCHELLE*      CLOUDY    64  49  59 NW13G20   29.99S
DE KALB*       CLOUDY    62  50  63 NW12G21   29.98S
PERU*          CLOUDY    65  50  59 NW21      30.00R
$$

ILZ005-006-012>014-019>023-212000-
NORTHEAST ILLINOIS

CITY           SKY/WX    TMP DP  RH WIND       PRES   REMARKS
CHICAGO-OHARE  CLOUDY    66  50  56 NW16      29.94R
CHICAGO-MIDWAY PTSUNNY   67  53  61 NW13      29.94R
AURORA         PTSUNNY   66  51  58 NW17G24   29.97R
LANSING*       HVY RAIN  60  52  74 N9G22     29.95R
JOLIET*        PTSUNNY   65  49  57 NW6       29.96F
WAUKEGAN       CLOUDY    63  50  62 N9G18     29.93R
DUPAGE AIRPORT CLOUDY    63  50  62 NW16      29.96R
KANKAKEE*      CLOUDY    63  51  66 NW12G20   29.97R
WHEELING       CLOUDY    65  51  60 NW14G22   29.95R
MORRIS*        PTSUNNY   68  52  57 NW9G16    29.96S
ROMEOVILLE*    PTSUNNY   64  51  61 N17       29.96R
NORTHERLY ISL    N/A     61  50  67 N13         N/A
$$

LMZ740>746-212000-
SOUTHERN LAKE MICHIGAN

STATION/POSITION SKY/WX   TEMP    WIND        PRES    VSBY  WAVE
                          AIR SEA DIR/SP/G                  HT/PER
                          (F)     (DEG/KT/KT) (MB)    (MI)  (FT/S)
SOUTHERN BUOY              59 62  330/ 25/ 33 1012.2R         7/ 7
WAUKEGAN HARBOR            63     330/ 15/ 18   N/A
HARRISON CRIB              61     340/ 18/ 21   N/A
BURNHAM HARBOR             61     350/ 10/ 19   N/A
CALUMET HARBOR             62     330/  6/ 10 1012.8R
MICHIGAN CITY              59     290/ 23/ 27   N/A
MICHIGAN CITY 6N           61 64  330/ 19/ 25   N/A           7/ 6
ST. JOSEPH                 60 65  350/ 25/ 35   N/A          10/ 7
$$

ILZ025>027-034>036-040-047-049-050-058-095>099-212000-
WEST-CENTRAL ILLINOIS

CITY           SKY/WX    TMP DP  RH WIND       PRES   REMARKS
QUINCY         MOSUNNY   73  47  39 NW14G23   30.06S
GALESBURG*     CLOUDY    64  52  65 NW13G18   30.06R
MACOMB*        PTSUNNY   69  50  51 NW18G26   30.07R
JACKSONVILLE*  MOSUNNY   75  47  37 NW14G25   30.04S
PITTSFIELD*    MOSUNNY   74  45  35 NW12G24   30.06S
$$

ILZ028>032-037-038-041>044-048-051>054-059>061-212000-
CENTRAL ILLINOIS

CITY           SKY/WX    TMP DP  RH WIND       PRES   REMARKS
PONTIAC        PTSUNNY   66  50  55 NW16G23   29.98S
DECATUR        PTSUNNY   72  49  44 NW21G31   29.99R
PEORIA         CLOUDY    67  49  52 N9        30.02R
LACON*         PTSUNNY   65  49  58 NW10G17   30.00S
LINCOLN*       PTSUNNY   73  50  44 NW10G18   29.98R
SPRINGFIELD    MOSUNNY   75  48  38 NW16G26   30.01S
TAYLORVILLE    MOSUNNY   73  46  38 NW18G24   30.00F
$$

ILZ033-039-045-046-055>057-062-063-212000-
EAST-CENTRAL ILLINOIS

CITY           SKY/WX    TMP DP  RH WIND       PRES   REMARKS
CHAMPAIGN      MOSUNNY   70  51  51 NW21G29   29.97R
DANVILLE*      PTSUNNY   67  51  57 NW20G26   29.93R
RANTOUL*       MOSUNNY   68  48  50 NW15G22   29.99R
MATTOON        MOSUNNY   73  48  41 NW28G33   29.96S
PARIS*         MOSUNNY   71  49  46 NW15G26   29.95R
$$

ILZ079-100>102-212000-
SOUTHWEST ILLINOIS

CITY           SKY/WX    TMP DP  RH WIND       PRES   REMARKS
BELLEVILLE     SUNNY     78  49  36 W16G24    30.00F
CAHOKIA*       SUNNY     79  47  32 NW20G30   30.02F
SPARTA*        SUNNY     78  47  32 W12G18    30.02F
$$

ILZ064>066-069>071-074>076-080>082-084>086-088>090-092>094-212000-
SOUTH-CENTRAL ILLINOIS

CITY           SKY/WX    TMP DP  RH WIND       PRES   REMARKS
CARBONDALE     SUNNY     77  48  35 W7G20     30.01F
CAIRO*         SUNNY     81  55  40 NW9       30.00F HX  80
EFFINGHAM*     SUNNY     77  40  27 NW18G26   29.97F
MARION         SUNNY     79  46  31 NW17      30.01F
MT. VERNON     SUNNY     75  52  43 W6        30.00F
CENTRALIA*     SUNNY     77  46  32 NW15G22   30.00S
SALEM*         SUNNY     77  51  40 NW14G26   30.00S
METROPOLIS*    SUNNY     80  51  35 NW8       29.99F HX  80
$$

ILZ067-068-072-073-078-083-087-091-212000-
SOUTHEAST ILLINOIS

CITY           SKY/WX    TMP DP  RH WIND       PRES   REMARKS
LAWRENCEVILLE  MOSUNNY   79  51  37 NW20G28   29.95F
FLORA*         SUNNY     78  47  33 W21G29    29.97F
FAIRFIELD*     SUNNY    N/A N/A N/A W9        29.97F
HARRISBURG*    SUNNY     77  47  34 W12       30.00F
ROBINSON*      MOSUNNY   78  51  38 W20G26    29.95S
CARMI*         SUNNY     80  51  36 W18       29.97F HX  80
$$

ABBREVIATIONS USED IN REMARKS
   TC - TEMPERATURE IN CELSIUS
  WCI - WIND CHILL INDEX
   HX - HEAT INDEX
  VSB - VISIBILITY
$$




USA.gov is the U.S. government's official web portal to all federal, state and local government web resources and services.